Temp
20 20 20 19 19 20 20 21 22 21 19 18 17 18 19 19 19 19 19 19 19 19 19 19 19 19 20 20 20 20 21 21 21 21 21 21 20 20 20 20 21 21
19 19 19 19 20 20 21 21 22 22 22 20 19 18 19 19 20 20 20 20 20 20 19 19 19 19 20 20 20 20 20 20 20 21 21 20 20 20 20 20 21 21
19 18 18 19 20 21 21 21 21 22 23 23 22 20 20 20 20 20 20 20 21 20 20 20 19 19 20 20 20 20 20 20 20 21 21 20 20 20 20 20 21 21
18 18 18 19 20 20 21 21 21 21 22 22 21 21 20 20 20 20 20 20 21 20 20 20 20 20 20 20 20 20 20 20 20 20 20 20 20 20 20 20 20 21
17 17 18 18 19 20 21 22 21 21 22 22 21 21 21 21 20 20 20 20 20 20 20 20 20 20 20 20 20 19 19 20 20 20 20 20 20 20 20 20 20 20
17 17 18 18 19 19 20 21 22 21 21 21 21 21 21 21 21 21 20 21 21 20 20 20 20 20 20 20 19 18 17 18 19 20 20 20 20 20 20 20 20 21
18 18 18 18 18 18 18 19 20 20 20 21 21 21 21 22 22 22 21 22 21 21 20 20 20 20 20 20 20 20 18 17 17 18 20 20 20 20 20 20 20 20
19 19 18 18 18 18 18 19 19 19 19 19 20 21 21 21 22 22 22 22 22 21 21 21 21 21 21 21 21 21 20 19 17 17 18 20 20 20 20 20 20 20
19 19 18 18 18 18 18 19 19 18 18 18 18 20 20 21 21 21 21 22 22 21 21 21 21 21 22 22 22 22 21 21 19 18 17 18 19 20 20 20 20 20
19 19 19 18 18 18 18 19 19 19 18 18 18 19 19 19 20 20 19 19 20 20 21 21 21 21 21 22 23 23 22 21 21 20 18 17 18 19 20 20 20 20
19 19 19 19 19 19 19 19 19 19 19 19 19 19 19 19 19 19 18 18 19 19 20 21 20 19 20 22 23 23 22 22 21 20 20 19 18 18 19 20 20 20
18 19 19 19 19 19 19 19 18 18 18 19 19 19 19 20 20 20 19 18 18 19 19 20 20 19 18 20 22 22 22 22 21 20 20 20 20 18 18 18 19 20
17 18 18 18 19 19 19 19 18 18 18 18 19 19 19 19 19 20 20 20 19 19 19 19 19 19 19 18 19 20 21 21 21 21 20 20 20 20 19 18 19 20
17 17 18 18 18 18 18 18 18 18 18 18 18 18 18 18 18 19 20 20 20 20 20 19 19 19 19 19 19 19 19 20 21 21 20 20 19 20 20 19 19 19
17 17 17 18 18 18 18 18 18 18 19 19 18 18 18 18 18 18 19 19 20 19 19 19 19 19 19 19 19 19 19 19 19 19 20 19 19 19 19 19 19 19
16 16 17 17 17 17 18 18 18 18 18 18 18 18 18 18 18 18 18 18 18 18 19 19 18 19 19 19 19 19 19 18 18 18 19 19 18 18 18 18 19 19
15 16 16 16 17 17 17 17 17 17 18 18 18 18 18 18 18 18 18 18 18 18 18 18 18 19 19 19 19 19 19 19 19 18 18 18 18 18 18 18 18 18
14 15 15 16 16 16 16 17 17 17 17 17 17 17 17 17 17 17 17 17 17 17 18 18 18 19 19 19 20 20 19 19 19 18 18 18 18 18 19 19 18 18
14 14 14 14 14 15 15 15 15 16 16 16 17 17 17 17 17 17 17 17 17 17 17 17 18 18 19 19 20 20 20 19 18 18 18 18 19 19 19 19 19 19
13 13 13 13 13 13 13 13 14 14 14 15 15 16 16 17 17 17 17 17 17 17 17 17 17 18 19 19 20 20 20 19 18 18 18 18 18 19 19 19 19 19
12 12 12 12 12 12 12 12 13 13 13 14 14 14 15 15 16 17 17 17 17 17 17 17 17 17 18 18 19 20 20 20 19 18 18 18 18 19 18 19 19 20
11 11 11 11 11 11 12 12 12 12 13 13 13 13 14 14 15 16 16 17 18 17 17 16 17 17 17 17 18 19 19 19 19 18 18 18 18 18 18 18 19 19
11 11 11 11 11 11 11 11 11 11 12 12 12 13 13 14 14 15 16 16 17 17 17 17 17 18 18 17 18 18 18 18 18 17 17 17 17 17 18 18 18 18
10 10 10 11 11 11 11 11 11 11 11 11 12 12 12 13 13 14 15 15 16 17 17 17 17 18 18 18 18 18 18 17 16 16 16 16 17 17 17 18 18 18
10 10 10 10 10 10 10 10 11 11 11 11 11 11 12 12 13 13 14 15 15 16 17 17 17 17 18 18 18 18 18 17 16 15 15 16 16 16 17 17 18 18
10 10 10 10 10 10 10 10 10 10 10 11 11 11 11 12 12 13 14 14 15 15 16 16 17 17 17 18 18 18 18 17 15 15 15 16 16 16 17 17 17 17
Height
786 788 790 792 794 796 798 797 797 801 807 815 820 820 817 815 815 816 817 818 819 821 823 825 825 825 825 824 823 823 823 823 824 826 828 829 830 831 833 834 834 834
785 787 789 791 792 793 794 794 794 794 799 808 816 818 815 813 811 811 811 812 814 816 819 821 823 824 825 824 823 822 822 821 822 824 825 826 828 829 830 831 831 831
782 785 787 790 791 789 789 791 792 792 795 801 808 811 811 810 808 807 807 807 808 811 814 817 819 821 822 823 823 822 821 820 820 821 823 824 825 826 828 829 830 830
781 783 786 789 790 787 785 788 790 792 794 798 802 805 806 806 806 805 804 804 805 807 810 813 815 816 818 820 822 822 821 820 819 820 821 821 823 824 825 826 827 827
782 783 785 787 788 785 782 783 787 790 793 795 798 801 803 803 803 803 802 802 802 803 806 810 813 814 814 815 818 820 820 820 819 819 819 819 820 821 822 823 823 824
782 783 784 785 786 784 781 781 784 787 790 792 795 797 798 798 798 799 798 797 797 799 802 805 809 811 812 811 811 815 819 821 820 818 818 817 817 818 819 820 819 820
780 781 782 782 784 784 783 782 784 786 787 790 792 793 794 794 794 794 793 791 791 794 798 801 803 806 808 808 807 808 813 820 822 820 817 816 816 816 815 816 816 816
778 779 780 781 782 783 783 782 783 784 786 787 788 789 791 791 790 789 787 786 787 791 794 797 798 800 801 803 803 802 805 812 819 821 818 815 814 814 812 813 813 813
777 777 778 778 779 780 780 780 781 782 784 785 786 786 787 787 787 787 785 783 785 788 791 793 795 796 795 795 796 797 800 803 809 815 818 817 814 811 811 811 811 810
775 775 775 775 776 776 777 777 778 779 781 783 784 784 784 784 784 785 785 784 784 786 788 790 792 793 792 789 788 791 795 798 800 804 811 815 816 813 810 810 810 808
774 774 774 774 774 774 775 775 776 777 779 780 780 780 780 781 781 783 784 784 784 785 785 787 789 792 791 786 783 785 789 793 795 797 800 806 811 813 812 810 808 806
774 774 774 773 773 773 774 774 775 776 776 776 776 776 776 777 778 779 780 781 782 783 783 783 785 789 790 786 783 782 785 788 791 793 795 797 800 805 809 811 808 805
774 774 774 773 773 773 773 773 773 774 774 773 774 773 773 774 774 775 776 777 778 779 780 781 782 784 786 786 785 783 783 785 787 789 791 792 793 795 799 805 807 805
774 773 773 773 773 772 772 771 770 770 770 770 771 771 771 771 771 771 771 772 773 774 775 777 778 779 780 781 782 782 782 782 783 784 786 788 789 789 790 794 800 803
773 773 772 771 771 770 769 768 767 767 767 767 767 767 767 768 768 768 768 768 768 769 770 771 772 774 775 776 777 777 778 779 779 780 781 782 784 786 786 787 791 797
772 772 770 770 769 768 767 766 765 764 764 764 764 764 764 765 765 765 765 765 766 766 766 766 767 768 769 771 772 772 773 775 776 777 778 779 780 782 783 783 784 788
771 770 769 768 767 766 765 763 762 762 762 763 763 763 763 762 762 762 761 761 762 762 762 762 761 762 763 765 766 767 767 769 770 772 773 774 776 777 778 779 780 782
770 769 767 766 765 764 763 761 760 759 759 760 761 761 761 760 759 759 758 758 758 758 758 757 757 757 757 758 759 760 762 763 764 766 768 769 770 772 773 774 775 776
768 767 766 765 763 762 761 760 759 758 757 757 758 758 758 757 756 755 754 754 754 753 753 753 752 752 752 752 753 754 756 758 759 761 763 763 764 766 767 768 768 769
766 765 764 763 762 761 760 759 758 757 756 755 755 755 754 754 753 752 750 750 749 749 748 747 747 747 747 747 748 749 751 752 754 756 756 757 759 760 761 763 763 762
764 763 762 761 760 759 758 757 756 755 754 753 752 752 751 750 749 748 746 745 744 744 743 742 741 742 742 743 744 745 746 747 748 749 750 751 752 754 756 757 756 756
762 760 759 758 757 757 756 755 754 753 752 751 749 748 747 747 746 744 742 741 739 738 737 736 735 736 738 739 740 741 742 742 742 743 744 746 747 749 751 752 751 753
759 758 756 755 754 753 752 752 751 750 749 748 746 744 742 741 741 740 739 737 735 733 732 730 730 731 732 733 735 736 737 738 738 738 739 740 742 744 746 746 746 748
757 756 754 752 751 749 748 747 747 746 746 745 744 742 739 737 736 734 733 732 730 728 727 726 724 725 727 728 729 730 731 732 733 734 734 734 736 739 740 739 739 741
754 753 751 749 748 746 745 744 743 742 741 741 740 738 736 733 731 729 727 726 725 724 723 721 719 719 720 722 722 724 725 727 728 730 730 729 731 733 733 732 732 734
752 750 748 747 745 743 742 741 739 738 737 736 735 734 732 729 727 725 722 720 719 718 717 716 715 714 714 715 716 717 718 720 722 724 724 724 725 726 726 726 726 728
Wind_Speed
29 30 30 29 26 23 21 20 20 21 18 15 21 26 27 28 29 29 30 30 29 29 30 30 30 33 34 34 35 35 35 35 37 37 37 38 37 35 34 33 32 31
31 31 31 31 28 25 22 21 22 24 25 23 26 28 28 28 29 31 32 33 32 32 32 31 31 32 33 34 34 35 35 35 36 37 37 37 37 36 36 36 34 32
34 33 32 32 30 27 23 22 22 23 25 29 32 33 34 34 31 30 31 32 34 34 34 34 33 33 33 34 34 34 35 35 36 37 36 37 37 36 36 37 36 34
33 34 34 34 32 27 23 21 21 24 26 30 34 35 37 38 35 30 28 30 33 33 33 34 35 34 33 33 34 34 35 35 35 36 36 37 38 37 37 37 37 36
30 31 33 35 34 28 24 23 23 25 29 33 36 36 37 37 33 28 25 27 31 33 33 32 33 34 33 32 32 32 33 35 35 35 35 37 38 37 38 38 37 37
26 28 30 32 32 28 25 26 28 30 33 36 37 36 37 37 34 30 28 28 30 33 36 36 36 35 35 34 31 29 29 31 34 35 35 36 37 37 37 37 38 38
24 26 27 29 29 26 23 24 27 31 35 38 38 37 37 36 35 34 32 29 30 34 38 41 42 40 39 38 34 30 29 30 31 33 36 36 36 36 38 38 38 38
22 24 25 27 28 27 26 26 27 30 33 35 37 39 38 36 36 37 34 29 31 37 41 44 46 45 43 40 35 32 32 32 32 32 34 36 36 36 38 38 37 38
19 20 21 22 24 25 26 27 28 30 30 30 33 36 36 35 36 38 37 34 35 41 45 46 47 46 44 40 36 34 34 34 35 33 33 34 36 38 39 38 37 38
19 19 19 20 21 23 24 26 28 30 30 31 32 32 32 33 34 35 35 35 38 43 44 44 44 46 44 40 36 34 36 37 37 37 34 33 35 38 39 39 38 39
17 18 19 20 21 23 24 25 28 30 32 33 34 34 33 33 33 33 33 32 35 39 40 41 41 41 41 40 37 36 38 39 39 38 37 36 36 37 38 39 39 41
18 17 17 18 20 21 23 24 26 29 30 32 33 34 34 33 34 35 35 33 33 35 36 37 37 36 35 35 36 38 40 40 40 39 39 39 39 39 38 39 40 42
20 18 17 16 18 19 21 22 24 25 26 28 29 31 32 33 34 35 36 35 35 35 35 35 36 36 34 33 33 36 39 41 41 41 40 40 41 42 41 41 41 43
21 20 19 17 17 17 19 20 21 22 23 24 26 28 31 32 33 34 34 35 36 36 36 37 37 37 37 37 36 36 38 40 41 42 42 41 41 43 44 42 41 42
21 20 19 18 18 18 19 19 20 20 21 22 24 26 28 30 32 33 33 34 35 37 37 38 38 38 39 39 40 39 37 38 39 40 41 41 41 42 43 42 41 41
23 21 19 19 19 19 20 21 21 21 20 21 23 26 28 29 31 32 33 34 35 35 36 36 37 38 39 40 41 40 38 37 37 38 38 38 39 38 39 40 40 41
23 22 21 21 22 21 22 22 23 23 21 20 21 23 27 29 31 32 34 35 35 36 36 36 37 38 40 41 42 42 41 39 40 40 40 39 38 38 38 39 39 39
24 23 23 23 22 22 23 24 24 25 24 23 21 21 24 26 29 31 33 34 35 36 37 38 39 41 41 40 41 42 42 42 42 41 41 41 41 41 42 42 39 38
23 22 21 21 21 22 22 23 23 24 25 25 25 24 24 24 26 29 31 33 34 35 36 38 40 41 41 41 41 41 42 43 43 42 42 42 43 44 45 44 41 39
22 22 22 22 23 23 24 24 24 25 26 26 27 27 26 26 27 28 30 32 33 34 36 37 39 40 41 41 41 41 42 44 45 44 44 44 45 45 46 45 43 41
24 25 25 24 24 24 24 25 25 26 27 28 28 28 28 28 29 30 31 31 33 34 36 37 38 39 40 41 43 43 44 46 47 46 45 45 46 46 47 48 45 42
26 26 26 26 25 25 24 24 25 26 27 29 29 30 30 30 30 31 32 32 33 34 35 37 38 40 40 41 43 45 46 47 48 47 45 44 45 45 46 46 43 40
26 26 27 27 26 25 25 25 25 26 27 27 29 30 31 31 31 31 32 33 34 35 35 36 38 40 41 42 44 46 47 48 47 45 44 44 44 45 43 40 38 38
25 25 26 27 27 27 28 28 27 27 26 26 27 29 31 33 32 32 33 33 34 36 37 37 38 40 40 42 44 47 48 48 45 42 42 43 43 42 40 39 39 41
25 25 25 26 28 29 29 30 30 29 28 28 28 29 31 33 33 33 34 34 34 35 37 38 40 41 41 42 44 46 48 48 45 41 39 40 40 38 38 40 43 45
25 25 26 27 28 30 31 31 30 30 30 30 30 30 30 32 33 34 34 35 35 35 36 38 40 41 43 44 45 46 47 47 45 40 39 40 39 36 37 40 43 45
Wind_Direction
218 219 218 216 216 223 230 226 225 228 233 259 270 255 241 237 238 236 236 237 238 240 242 242 238 233 228 226 224 222 220 218 218 220 222 224 226 226 225 227 228 229
222 221 219 219 219 222 232 234 230 229 230 243 262 261 246 237 235 233 233 235 237 238 239 241 241 238 233 229 226 223 221 220 220 222 224 225 227 228 228 228 230 231
222 221 219 222 223 222 229 236 234 231 232 239 245 249 247 242 236 234 233 232 234 236 236 237 238 237 235 232 229 226 224 223 223 224 226 228 229 229 229 229 230 232
221 221 222 226 227 226 227 232 234 233 235 238 239 241 244 241 236 236 235 232 233 233 234 236 236 235 234 234 232 230 228 227 227 227 226 228 230 230 229 228 229 230
229 227 229 232 232 229 225 224 230 234 236 239 241 242 241 237 234 236 235 233 233 232 232 234 235 233 231 231 231 232 233 231 230 229 228 228 229 230 229 227 227 228
239 238 237 237 236 232 223 221 225 229 233 236 238 240 239 236 236 238 235 234 235 234 231 231 232 231 229 227 227 232 240 241 235 231 230 230 230 229 229 228 228 228
249 250 249 245 243 240 232 229 231 233 235 236 237 239 239 236 237 239 238 236 238 236 233 230 230 229 229 230 227 228 238 248 247 239 233 232 231 231 229 229 229 230
257 258 259 254 251 250 248 245 243 243 242 240 240 241 240 238 239 242 243 242 240 237 232 230 230 229 227 228 228 228 231 239 248 248 242 235 232 232 231 230 229 230
269 265 264 261 258 257 257 256 255 252 248 245 244 244 244 244 246 247 246 241 237 233 230 229 230 229 225 223 226 230 231 232 237 244 248 245 238 234 233 231 230 230
289 285 280 275 271 268 266 267 267 264 258 254 253 253 252 251 251 249 244 237 232 229 227 228 230 229 225 223 225 229 231 233 233 234 240 247 246 242 238 234 232 232
303 298 292 288 284 280 276 272 269 266 262 259 258 259 258 257 254 250 244 238 233 230 229 229 231 231 228 226 226 228 230 232 233 231 231 237 244 247 245 240 236 235
316 306 298 293 289 285 281 275 267 261 259 258 257 256 256 256 255 251 248 244 240 238 236 233 233 235 236 232 228 226 228 230 232 231 231 232 235 240 246 246 242 240
332 322 311 302 293 287 282 277 269 262 258 259 259 257 255 254 252 249 249 248 247 246 244 241 239 238 240 239 234 228 227 228 230 231 232 233 233 233 238 245 247 245
334 331 326 320 311 302 292 285 279 273 269 267 263 259 257 256 253 250 250 251 251 249 247 245 243 240 239 238 237 233 230 228 228 230 231 233 234 234 234 237 243 247
328 329 328 325 322 318 311 303 296 290 283 278 271 265 263 261 258 255 253 251 249 248 246 243 240 239 238 236 235 233 232 231 229 229 230 232 233 236 236 235 238 244
326 326 326 324 323 322 319 315 311 305 296 286 279 273 269 265 261 257 252 249 247 245 244 241 238 238 238 238 236 233 232 233 234 232 231 232 233 235 237 237 237 240
325 324 322 321 321 319 317 316 314 312 305 295 286 278 272 267 263 258 253 250 247 245 244 242 240 240 239 239 238 236 233 232 233 234 233 233 234 235 236 238 237 238
327 326 325 324 323 322 321 319 317 314 309 302 293 285 278 271 264 259 256 253 248 245 243 241 241 240 240 240 240 239 237 233 231 232 233 232 234 236 238 239 239 238
331 333 334 334 332 330 327 325 322 317 313 309 303 296 287 276 269 265 261 257 251 246 243 241 240 240 240 241 242 241 239 236 232 231 233 234 234 235 237 238 238 239
333 334 334 331 328 326 323 321 318 314 312 309 307 303 295 283 274 269 265 261 256 252 248 245 243 243 242 242 242 242 240 237 234 232 233 235 236 236 237 238 238 240
328 327 325 322 320 319 317 314 311 309 306 305 303 301 297 291 282 272 266 264 262 257 253 251 249 247 245 244 242 242 241 237 234 232 233 234 236 237 237 238 239 240
323 321 319 316 314 313 310 308 305 303 301 300 299 296 293 291 286 278 269 264 263 262 257 254 254 253 250 247 245 244 241 238 234 232 232 234 236 236 235 237 239 238
318 316 313 310 309 307 304 302 299 297 296 295 294 292 290 287 283 280 274 266 261 260 258 255 257 258 255 251 249 247 242 237 234 232 232 233 235 235 235 235 235 235
313 311 308 306 304 302 301 299 297 294 292 290 287 286 285 284 281 277 275 269 262 258 256 255 256 258 258 255 252 250 245 239 235 233 232 232 233 235 235 234 232 232
312 309 305 302 300 298 297 297 295 293 290 287 284 280 279 279 278 274 271 268 264 260 256 255 255 257 257 256 255 254 249 242 236 233 233 233 232 233 234 234 233 232
313 309 305 301 297 296 295 294 292 291 289 285 282 279 276 274 272 270 268 266 264 262 259 256 254 255 256 256 256 256 252 246 239 234 233 235 233 230 231 233 234 235